GW1429 Weather Reports


Display with metric or nautical units.
time (UTC)temp
F
wind
direction
speed
MPH
gust
MPH
rain 1hr
in
rain 24hr
in
rain mn
in
humidity
%
barometer
mb
20260509222528 89 159 4.0 9.0 0.00 0.00 0.00 50 1043.0
20260509222023 91 176 6.0 7.0 0.00 0.00 0.00 51 1042.8
20260509221520 93 187 1.0 4.0 0.00 0.00 0.00 49 1042.8
20260509221016 92 319 2.0 5.0 0.00 0.00 0.00 50 1042.7
20260509220512 91 314 5.0 5.0 0.00 0.00 0.00 50 1042.9
20260509220008 91 150 0.0 6.0 0.00 0.00 0.00 51 1042.7
20260509215503 90 243 0.0 4.0 0.00 0.00 0.00 53 1042.9
20260509215001 89 165 1.0 6.0 0.00 0.00 0.00 54 1042.8
20260509214459 89 137 0.0 5.0 0.00 0.00 0.00 54 1043.0
20260509213955 89 146 2.0 7.0 0.00 0.00 0.00 54 1043.1
20260509213451 89 154 2.0 6.0 0.00 0.00 0.00 54 1043.1
20260509212948 89 79 3.0 7.0 0.00 0.00 0.00 53 1043.1
20260509212445 89 131 5.0 12.0 0.00 0.00 0.00 55 1043.2
20260509211941 90 131 5.0 5.0 0.00 0.00 0.00 54 1043.1
20260509211437 88 142 3.0 6.0 0.00 0.00 0.00 57 1043.3
20260509210934 88 140 5.0 8.0 0.00 0.00 0.00 56 1043.3
20260509210431 88 161 0.0 11.0 0.00 0.00 0.00 55 1043.7
20260509205926 88 34 2.0 9.0 0.00 0.00 0.00 55 1043.5
20260509205421 87 133 6.0 9.0 0.00 0.00 0.00 55 1043.4
20260509204917 88 103 8.0 12.0 0.00 0.00 0.00 53 1043.9
20260509204414 87 205 3.0 9.0 0.00 0.00 0.00 51 1043.9
20260509203910 86 119 5.0 12.0 0.00 0.00 0.00 52 1043.7
20260509203406 86 142 7.0 14.0 0.00 0.00 0.00 53 1043.9
20260509202904 87 136 9.0 11.0 0.00 0.00 0.00 54 1044.0
20260509202359 86 129 9.0 13.0 0.00 0.00 0.00 52 1044.1
20260509201854 85 148 6.0 16.0 0.00 0.00 0.00 51 1044.2
20260509201350 85 146 8.0 16.0 0.00 0.00 0.00 51 1044.3
20260509200847 85 119 7.0 17.0 0.00 0.00 0.00 56 1044.6
20260509200342 86 141 9.0 25.0 0.00 0.00 0.00 57 1044.7
20260509195839 89 339 2.0 5.0 0.00 0.00 0.00 58 1044.7
20260509195334 90 117 3.0 5.0 0.00 0.00 0.00 59 1044.6
20260509194833 88 194 1.0 4.0 0.00 0.00 0.00 59 1044.1
20260509194330 87 233 5.0 13.0 0.00 0.00 0.00 62 1044.4
20260509193827 90 317 6.0 7.0 0.00 0.00 0.00 59 1044.3
20260509193321 89 97 0.0 5.0 0.00 0.00 0.00 59 1044.6
20260509192817 87 97 4.0 5.0 0.00 0.00 0.00 61 1044.3
20260509192313 88 16 9.0 11.0 0.00 0.00 0.00 61 1044.3
20260509191809 87 20 6.0 10.0 0.00 0.00 0.00 62 1044.6
20260509191305 87 62 4.0 10.0 0.00 0.00 0.00 63 1044.4
20260509190800 86 10 0.0 4.0 0.00 0.00 0.00 64 1044.4
20260509190258 87 26 6.0 10.0 0.00 0.00 0.00 62 1044.7
20260509185755 87 15 11.0 11.0 0.00 0.00 0.00 63 1044.7
20260509185251 87 24 4.0 7.0 0.00 0.00 0.00 64 1045.0
20260509184749 86 16 5.0 9.0 0.00 0.00 0.00 65 1044.9
20260509184246 86 22 3.0 6.0 0.00 0.00 0.00 64 1045.3
20260509183743 87 40 5.0 7.0 0.00 0.00 0.00 63 1045.3
20260509183238 87 342 5.0 5.0 0.00 0.00 0.00 63 1045.1
20260509182733 86 285 3.0 3.0 0.00 0.00 0.00 63 1045.2
20260509182231 84 8 3.0 7.0 0.00 0.00 0.00 64 1045.5
20260509181729 85 322 3.0 5.0 0.00 0.00 0.00 62 1045.3
20260509181226 85 12 2.0 7.0 0.00 0.00 0.00 65 1045.5
20260509180723 85 286 6.0 9.0 0.00 0.00 0.00 64 1045.7
20260509180219 85 340 3.0 8.0 0.00 0.00 0.00 66 1045.7
20260509175716 86 220 3.0 7.0 0.00 0.00 0.00 66 1045.8
20260509175212 86 326 7.0 7.0 0.00 0.00 0.00 65 1045.7
20260509174708 84 292 3.0 4.0 0.00 0.00 0.00 69 1045.5
20260509174203 83 309 5.0 8.0 0.00 0.00 0.00 71 1045.7
20260509173700 83 278 2.0 5.0 0.00 0.00 0.00 72 1045.5
20260509173155 83 236 2.0 4.0 0.00 0.00 0.00 72 1045.8
20260509172651 82 258 4.0 4.0 0.00 0.00 0.00 74 1046.1
20260509172148 81 235 4.0 5.0 0.00 0.00 0.00 76 1046.0
20260509171643 82 288 4.0 8.0 0.00 0.00 0.00 74 1046.3
20260509171140 84 161 0.0 5.0 0.00 0.00 0.00 72 1046.5
20260509170637 83 230 6.0 8.0 0.00 0.00 0.00 74 1046.3
20260509170133 83 13 3.0 4.0 0.00 0.00 0.00 74 1046.4
20260509165631 82 228 4.0 7.0 0.00 0.00 0.00 76 1046.4
20260509165127 83 299 2.0 6.0 0.00 0.00 0.00 75 1046.3
20260509164624 81 251 2.0 12.0 0.00 0.00 0.00 77 1046.1
20260509164119 81 315 8.0 10.0 0.00 0.00 0.00 78 1046.2
20260509163617 81 287 8.0 9.0 0.00 0.00 0.00 77 1046.5
20260509163112 79 308 5.0 11.0 0.00 0.00 0.00 80 1046.3
20260509162610 80 5 2.0 6.0 0.00 0.00 0.00 78 1046.3
20260509162105 80 270 4.0 10.0 0.00 0.00 0.00 79 1046.3
20260509161557 79 299 5.0 13.0 0.00 0.00 0.00 82 1046.4
20260509161057 80 251 5.0 10.0 0.00 0.00 0.00 82 1046.0
20260509160553 80 259 3.0 12.0 0.00 0.00 0.00 82 1045.9
20260509160048 78 246 7.0 12.0 0.00 0.00 0.00 85 1046.3
20260509155545 78 228 9.0 13.0 0.00 0.00 0.00 85 1046.3
20260509155041 78 222 6.0 14.0 0.00 0.00 0.00 85 1046.2
20260509154537 78 242 6.0 16.0 0.00 0.00 0.00 85 1045.8
20260509154035 78 203 11.0 17.0 0.00 0.00 0.00 83 1045.9
20260509153532 79 221 9.0 15.0 0.00 0.00 0.00 84 1045.9
20260509153029 80 202 6.0 11.0 0.00 0.00 0.00 83 1045.7
20260509152524 80 181 10.0 11.0 0.00 0.00 0.00 82 1045.7
20260509152022 80 193 6.0 11.0 0.00 0.00 0.00 81 1045.7
20260509151518 80 151 0.0 11.0 0.00 0.00 0.00 82 1045.6
20260509151016 80 199 9.0 13.0 0.00 0.00 0.00 82 1045.7
20260509150513 80 179 6.0 10.0 0.00 0.00 0.00 82 1045.3
20260509150012 80 191 5.0 9.0 0.00 0.00 0.00 82 1045.2
20260509145507 79 218 7.0 8.0 0.00 0.00 0.00 82 1045.4
20260509145002 80 204 5.0 7.0 0.00 0.00 0.00 80 1045.3
20260509144459 79 225 7.0 8.0 0.00 0.00 0.00 82 1045.7
20260509143956 80 202 7.0 11.0 0.00 0.00 0.00 82 1045.5
20260509143453 79 225 4.0 7.0 0.00 0.00 0.00 83 1045.5
20260509142950 78 205 3.0 10.0 0.00 0.00 0.00 83 1045.2
20260509142446 78 256 6.0 7.0 0.00 0.00 0.00 83 1045.1
20260509141942 78 186 4.0 8.0 0.00 0.00 0.00 84 1045.1
20260509141438 78 205 3.0 3.0 0.00 0.00 0.00 84 1045.1
20260509140935 79 75 0.0 5.0 0.00 0.00 0.00 83 1045.2
20260509140431 78 157 2.0 5.0 0.00 0.00 0.00 85 1044.9
20260509135930 78 163 6.0 7.0 0.00 0.00 0.00 86 1044.8
20260509135427 77 221 4.0 6.0 0.00 0.00 0.00 87 1044.8
20260509134924 76 166 3.0 10.0 0.00 0.00 0.00 88 1044.8
20260509134422 76 207 9.0 12.0 0.00 0.00 0.00 89 1044.7
20260509133919 75 199 7.0 13.0 0.00 0.00 0.00 91 1045.0
20260509133415 75 197 5.0 9.0 0.00 0.00 0.00 91 1044.8
20260509132914 75 236 6.0 8.0 0.00 0.00 0.00 92 1045.1
20260509132412 75 220 5.0 6.0 0.00 0.00 0.00 92 1045.0
20260509131908 74 208 4.0 12.0 0.00 0.00 0.00 93 1045.0
20260509131406 74 230 4.0 10.0 0.00 0.00 0.00 93 1045.2
20260509130902 73 184 4.0 9.0 0.00 0.00 0.00 95 1044.8
20260509130357 73 210 4.0 7.0 0.00 0.00 0.00 96 1045.1
20260509125855 72 150 4.0 5.0 0.00 0.00 0.00 96 1045.1
20260509125351 72 212 2.0 4.0 0.00 0.00 0.00 97 1045.2
20260509124847 71 228 2.0 2.0 0.00 0.00 0.00 97 1045.5
20260509124344 71 243 2.0 2.0 0.00 0.00 0.00 97 1045.5
20260509123842 71 345 2.0 4.0 0.00 0.00 0.00 97 1045.4
20260509123339 71 265 2.0 3.0 0.00 0.00 0.00 97 1045.4
20260509122835 71 273 3.0 7.0 0.00 0.00 0.00 97 1045.4
20260509122332 71 351 4.0 5.0 0.00 0.00 0.00 97 1045.5
20260509121829 71 352 2.0 4.0 0.00 0.00 0.00 97 1045.3
20260509121326 71 32 2.0 3.0 0.00 0.00 0.00 98 1045.3
20260509120824 71 342 0.0 4.0 0.00 0.00 0.00 98 1045.3
20260509120322 71 338 0.0 4.0 0.00 0.00 0.00 98 1045.4
20260509115820 71 350 3.0 3.0 0.00 0.00 0.00 98 1045.7
20260509115316 71 348 2.0 4.0 0.00 0.00 0.00 98 1045.8
20260509114814 71 352 0.0 2.0 0.00 0.00 0.00 98 1045.6
20260509114313 71 330 2.0 3.0 0.00 0.00 0.00 98 1045.8
20260509113812 71 120 1.0 2.0 0.00 0.00 0.00 98 1046.0
20260509113308 71 139 0.0 3.0 0.00 0.00 0.00 98 1046.0
20260509112805 71 170 3.0 5.0 0.00 0.00 0.00 98 1045.9
20260509112306 71 198 2.0 2.0 0.00 0.00 0.00 98 1046.2
20260509111759 71 172 2.0 2.0 0.00 0.00 0.00 98 1046.3
20260509111256 71 66 0.0 3.0 0.00 0.00 0.00 98 1046.3
20260509110753 71 69 0.0 2.0 0.00 0.00 0.00 98 1046.6
20260509110250 71 306 0.0 2.0 0.00 0.00 0.00 98 1046.7
20260509105748 71 320 3.0 3.0 0.00 0.00 0.00 98 1046.7
20260509105245 71 240 1.0 2.0 0.00 0.00 0.00 98 1046.7
20260509104741 71 21 2.0 4.0 0.00 0.00 0.00 98 1046.7
20260509104239 71 74 0.0 2.0 0.00 0.00 0.00 98 1046.8
20260509103737 71 0 0.0 4.0 0.00 0.00 0.00 98 1046.7
20260509103234 71 345 0.0 3.0 0.00 0.00 0.00 98 1046.7
20260509102732 71 11 2.0 4.0 0.00 0.00 0.00 98 1046.8
20260509102229 71 81 0.0 3.0 0.00 0.00 0.00 98 1046.5
20260509101725 71 8 0.0 2.0 0.00 0.00 0.00 98 1046.6
20260509101222 71 54 1.0 4.0 0.00 0.00 0.00 98 1046.5
20260509100719 71 339 2.0 4.0 0.00 0.00 0.00 98 1046.4
20260509100216 71 0 2.0 3.0 0.00 0.00 0.00 98 1046.0
20260509095713 71 0 0.0 2.0 0.00 0.00 0.00 98 1046.1
20260509095210 71 117 0.0 0.0 0.00 0.00 0.00 98 1045.9
20260509094707 71 23 1.0 1.0 0.00 0.00 0.00 98 1045.6
20260509094204 71 98 0.0 1.0 0.00 0.00 0.00 98 1045.4
20260509093702 71 103 0.0 2.0 0.00 0.00 0.00 98 1045.2
20260509093159 71 233 0.0 2.0 0.00 0.00 0.00 98 1045.2
20260509092657 71 151 3.0 3.0 0.00 0.00 0.00 98 1045.2
20260509092155 71 173 1.0 3.0 0.00 0.00 0.00 98 1045.1
20260509091653 71 147 2.0 3.0 0.00 0.00 0.00 98 1044.7
20260509091148 71 161 2.0 3.0 0.00 0.00 0.00 97 1044.8
20260509090647 71 171 2.0 4.0 0.00 0.00 0.00 97 1045.1
20260509090143 71 162 2.0 3.0 0.00 0.00 0.00 97 1044.8
20260509085641 71 131 0.0 2.0 0.00 0.00 0.00 97 1045.1
20260509085137 71 135 3.0 3.0 0.00 0.00 0.00 97 1045.0
20260509084634 71 90 0.0 2.0 0.00 0.00 0.00 97 1045.3
20260509084131 71 90 0.0 3.0 0.00 0.00 0.00 97 1045.2
20260509083629 71 96 0.0 2.0 0.00 0.00 0.00 97 1045.2
20260509083125 72 109 1.0 2.0 0.00 0.00 0.00 97 1045.5
20260509082623 72 117 1.0 3.0 0.00 0.00 0.00 97 1045.6
20260509082119 72 106 1.0 3.0 0.00 0.00 0.00 96 1045.7
20260509081616 72 172 0.0 2.0 0.00 0.00 0.00 96 1045.3
20260509081113 72 180 0.0 2.0 0.00 0.00 0.00 96 1045.6
20260509080612 72 139 0.0 0.0 0.00 0.00 0.00 96 1045.4
20260509080109 72 132 2.0 5.0 0.00 0.00 0.00 96 1045.6
20260509075607 72 90 3.0 4.0 0.00 0.00 0.00 95 1045.8
20260509075104 72 132 2.0 3.0 0.00 0.00 0.00 95 1045.6
20260509074601 72 143 3.0 4.0 0.00 0.00 0.00 95 1045.8
20260509074057 73 108 3.0 4.0 0.00 0.00 0.00 94 1045.5
20260509073554 73 173 0.0 2.0 0.00 0.00 0.00 94 1045.5
20260509073050 73 161 2.0 3.0 0.00 0.00 0.00 94 1045.9
20260509072547 73 166 1.0 3.0 0.00 0.00 0.00 94 1045.8
20260509072044 73 174 1.0 1.0 0.00 0.00 0.00 94 1045.8
20260509071541 73 286 0.0 2.0 0.00 0.00 0.00 94 1045.5
20260509071038 73 246 0.0 2.0 0.00 0.00 0.00 94 1045.7
20260509070536 73 238 3.0 3.0 0.00 0.00 0.00 94 1046.0
20260509070032 73 225 2.0 3.0 0.00 0.00 0.00 94 1045.7
20260509065527 73 246 3.0 3.0 0.00 0.00 0.00 93 1045.9
20260509065024 73 215 0.0 2.0 0.00 0.00 0.00 93 1045.8
20260509064521 73 120 2.0 2.0 0.00 0.00 0.00 93 1045.6
20260509064019 73 147 3.0 6.0 0.00 0.00 0.00 93 1045.8
20260509063514 73 198 4.0 6.0 0.00 0.00 0.00 93 1045.7
20260509063012 73 185 5.0 5.0 0.00 0.00 0.00 93 1045.7
20260509062509 73 206 2.0 4.0 0.00 0.00 0.00 93 1045.7
20260509062007 73 176 2.0 3.0 0.00 0.00 0.00 93 1045.7
20260509061504 73 215 1.0 5.0 0.00 0.00 0.00 93 1045.7
20260509061001 73 144 4.0 4.0 0.00 0.00 0.00 93 1045.5
20260509060458 73 130 3.0 4.0 0.00 0.00 0.00 93 1045.3
20260509055953 73 162 6.0 9.0 0.00 0.00 0.00 92 1045.1
20260509055449 73 210 2.0 7.0 0.00 0.00 0.00 92 1045.0
20260509054945 73 132 4.0 14.0 0.00 0.00 0.00 92 1045.5
20260509054442 73 225 3.0 10.0 0.00 0.00 0.00 92 1045.4
20260509053940 73 190 2.0 6.0 0.00 0.00 0.00 93 1045.1
20260509053438 73 195 2.0 4.0 0.00 0.00 0.00 93 1044.6
20260509052935 73 195 2.0 5.0 0.00 0.00 0.00 93 1044.4
20260509052433 73 129 6.0 6.0 0.00 0.00 0.00 93 1044.3
20260509051931 73 156 5.0 8.0 0.00 0.00 0.00 93 1044.0
20260509051428 73 191 2.0 9.0 0.00 0.00 0.00 93 1044.0
20260509050925 73 166 3.0 5.0 0.00 0.00 0.00 93 1044.0
20260509050421 73 147 2.0 5.0 0.00 0.00 0.00 93 1044.3
20260509045918 73 147 3.0 5.0 0.00 0.00 0.00 92 1044.0
20260509045415 73 146 4.0 6.0 0.00 0.00 0.00 92 1044.2
20260509044912 73 178 4.0 8.0 0.00 0.00 0.00 92 1044.0
20260509044410 73 189 4.0 6.0 0.00 0.00 0.00 92 1044.1
20260509043907 73 171 2.0 6.0 0.00 0.00 0.00 92 1044.3
20260509043402 73 174 1.0 4.0 0.00 0.00 0.00 92 1044.6
20260509042858 73 188 2.0 4.0 0.00 0.00 0.00 92 1044.6
20260509042355 73 133 3.0 3.0 0.00 0.00 0.00 92 1044.7
20260509041852 73 162 3.0 4.0 0.00 0.00 0.00 92 1044.9
20260509041349 73 159 3.0 4.0 0.00 0.00 0.00 91 1045.0
20260509040847 73 156 2.0 3.0 0.00 0.00 0.00 91 1045.0
20260509040345 73 148 3.0 3.0 0.00 0.00 0.00 91 1044.8
20260509035841 73 170 2.0 4.0 0.00 0.00 0.00 91 1044.9
20260509035338 73 172 0.0 4.0 0.00 0.00 0.00 91 1044.8
20260509034834 73 165 2.0 4.0 0.00 0.00 0.00 91 1044.8
20260509034332 73 105 3.0 5.0 0.00 0.00 0.00 91 1044.8
20260509033829 72 186 4.0 4.0 0.00 0.00 0.00 91 1044.6
20260509033326 72 165 4.0 5.0 0.00 0.00 0.00 91 1044.7
20260509032823 72 203 3.0 8.0 0.00 0.00 0.00 91 1044.6
20260509032320 72 162 5.0 7.0 0.00 0.00 0.00 91 1044.3
20260509031818 72 170 5.0 7.0 0.00 0.00 0.00 91 1044.4
20260509031315 72 174 3.0 5.0 0.00 0.00 0.00 91 1044.3
20260509030813 72 171 4.0 5.0 0.00 0.00 0.00 91 1044.3
20260509030310 73 191 4.0 6.0 0.00 0.00 0.00 90 1044.3
20260509025807 73 196 4.0 4.0 0.00 0.00 0.00 90 1044.3
20260509025306 73 200 5.0 5.0 0.00 0.00 0.00 90 1044.3
20260509024758 73 150 3.0 5.0 0.00 0.00 0.00 89 1044.2
20260509024255 74 139 2.0 7.0 0.00 0.00 0.00 89 1044.2
20260509023752 74 122 0.0 11.0 0.00 0.00 0.00 89 1044.1
20260509023249 74 171 2.0 7.0 0.00 0.00 0.00 89 1044.2
20260509022745 74 175 1.0 5.0 0.00 0.00 0.00 88 1044.2
20260509022243 74 143 6.0 6.0 0.00 0.00 0.00 89 1044.2
20260509021739 74 227 3.0 7.0 0.00 0.00 0.00 88 1043.9
20260509021236 74 146 4.0 6.0 0.00 0.00 0.00 88 1043.9
20260509020734 75 140 5.0 7.0 0.00 0.00 0.00 88 1043.9
20260509020232 75 167 4.0 11.0 0.00 0.00 0.00 88 1043.7
20260509015729 75 165 1.0 9.0 0.00 0.00 0.00 87 1043.6
20260509015228 75 165 4.0 8.0 0.00 0.00 0.00 87 1043.4
20260509014724 75 152 2.0 5.0 0.00 0.00 0.00 87 1043.6
20260509014221 75 133 3.0 7.0 0.00 0.00 0.00 86 1043.5
20260509013718 75 134 5.0 7.0 0.00 0.00 0.00 86 1043.7
20260509013213 76 148 3.0 7.0 0.00 0.00 0.00 85 1043.4
20260509012710 76 146 5.0 6.0 0.00 0.00 0.00 85 1043.4
20260509012206 76 157 2.0 7.0 0.00 0.00 0.00 84 1043.3
20260509011704 76 180 3.0 9.0 0.00 0.00 0.00 83 1043.1
20260509011202 77 164 2.0 11.0 0.00 0.00 0.00 83 1043.5
20260509010659 77 159 3.0 9.0 0.00 0.00 0.00 82 1043.5
20260509010155 77 175 5.0 7.0 0.00 0.00 0.00 82 1043.4
20260509005653 77 159 6.0 9.0 0.00 0.00 0.00 82 1043.3
20260509005150 77 186 3.0 6.0 0.00 0.00 0.00 82 1043.3
20260509004645 77 142 5.0 11.0 0.00 0.00 0.00 82 1043.4
20260509004142 77 151 4.0 9.0 0.00 0.00 0.00 82 1043.3
20260509003641 77 206 4.0 8.0 0.00 0.00 0.00 82 1043.4
20260509003138 77 137 4.0 9.0 0.00 0.00 0.00 82 1043.4
20260509002635 77 148 2.0 6.0 0.00 0.00 0.00 82 1043.5
20260509002132 77 138 5.0 9.0 0.00 0.00 0.00 81 1043.5
20260509001630 77 173 2.0 5.0 0.00 0.00 0.00 81 1043.4
20260509001125 77 143 3.0 5.0 0.00 0.00 0.00 81 1043.4
20260509000624 77 134 5.0 6.0 0.00 0.00 0.00 81 1043.3
20260509000120 77 162 1.0 6.0 0.00 0.00 0.00 81 1043.5
20260508235617 77 145 5.0 7.0 0.00 0.00 0.00 81 1043.5
20260508235114 77 108 3.0 5.0 0.00 0.00 0.00 81 1043.3
20260508234612 77 148 3.0 7.0 0.00 0.00 0.00 80 1043.6
20260508234108 77 107 6.0 7.0 0.00 0.00 0.00 80 1043.7
20260508233607 77 153 6.0 9.0 0.00 0.00 0.00 80 1043.6
20260508233104 78 157 5.0 7.0 0.00 0.00 0.00 80 1043.3
20260508232601 78 175 5.0 7.0 0.00 0.00 0.00 80 1043.4
20260508232058 77 215 5.0 7.0 0.00 0.00 0.00 81 1043.5
20260508231556 77 163 3.0 6.0 0.00 0.00 0.00 81 1043.3
20260508231052 77 143 4.0 7.0 0.00 0.00 0.00 81 1043.4
20260508230549 77 127 8.0 13.0 0.00 0.00 0.00 80 1043.4
20260508230046 78 104 5.0 7.0 0.00 0.00 0.00 79 1043.3
20260508225543 78 135 4.0 10.0 0.00 0.00 0.00 79 1043.2
20260508225040 78 131 4.0 7.0 0.00 0.00 0.00 79 1043.4
20260508224538 78 161 4.0 7.0 0.00 0.00 0.00 79 1043.2
20260508224035 78 140 8.0 10.0 0.00 0.00 0.00 79 1043.3
20260508223532 78 145 4.0 6.0 0.00 0.00 0.00 79 1043.2
20260508223029 78 146 5.0 13.0 0.00 0.00 0.00 79 1043.6